Torna al catalogo

STARLINK-5766

AttivoComunicazioniVLEO
NORAD 56025·PAYLOAD·🇺🇸 United States

Lanciato Mar 24, 2023 da Cape Canaveral Space Force Station

Loading…

Prossimi Passaggi (prossime 24 ore)

TLE

AggiornatoSource: CelesTrak SupGP

Epoca: Sep 14, 2026, 21:05 UTC

1 56025C 23042AR  26257.87895833  .00055890  00000+0  20245-2 0  2570
2 56025  43.0008  57.1614 0001852 278.9080 132.9754 15.27546993    12

Traccia STARLINK-5766 in tempo reale con AllMySat

Download on the App Store